Location: ??
(34.9170°N, 135.5016°E)
Time: 11:35:12
(UTC+00:00)

Cosmos 2084 - Pass Details

Date: 29 October 2020
Orbit: 563 x 619 km, 62.8° (Epoch: 26 November)

Event Time Altitude Azimuth Distance (km) Brightness Sun altitude
Exits shadow 19:57:38 27° 311° (NW) 1,154 4.5 -16.8°
Drops below altitude 10° 20:01:18 10° 8° (N) 1,932 6.1 -16.0°
Sets 20:03:52 0° 21° (NNE) 2,848 7.2 -15.5°
